Clarksville, TX

3:03 PM CDT on August 28, 2016 (GMT -0500)
Clarksville

Weather History for KLBR - February, 2014

Change the Weather History Date:

Thursday, February 13, 2014

  Actual Average (KPRX) Record (KPRX)
Temperature  
Mean Temperature 42 °F -  
Max Temperature 61 °F 56 °F 75 °F (2000)
Min Temperature 24 °F 37 °F 23 °F (2004)
Degree Days  
Heating Degree Days 22    
Moisture  
Dew Point 30 °F    
Average Humidity 64    
Maximum Humidity 95    
Minimum Humidity 33    
Precipitation  
Precipitation 0.00 in - - ()
Sea Level Pressure  
Sea Level Pressure 29.97 in    
Wind  
Wind Speed 1 mph (SW)    
Max Wind Speed 9 mph    
Max Gust Speed -    
Visibility 9 miles    
Events      
Averages and records for this station are not official NWS values.
T = Trace of Precipitation, MM = Missing Value Source: NWS Daily Summary

Daily Weather History Graph

Daily Weather History Graph

Search for Another Location

Airport or City:

Trip Planner

Search our weather history database for the weather conditions in past years. The results will help you decide how hot, cold, wet, or windy it might be!

Date:

Astronomy

Feb. 13, 2014 Rise Set
Actual Time 7:06 AM CST 6:03 PM CST
Civil Twilight 6:40 AM CST 6:28 PM CST
Nautical Twilight 6:11 AM CST 6:57 PM CST
Astronomical Twilight 5:42 AM CST 7:26 PM CST
Moon 5:11 PM CST (2/13) 5:59 AM CST (2/13)
Length of Visible Light 11h 47m
Length of Day
10h 56m
Waxing Gibbous, 99% of the Moon is Illuminated
Feb 13
Waxing Gibbous
Feb 14
Full
Feb 22
Last Quarter
Mar 1
New
Mar 8
First Quarter

Hourly Weather History & Observations

Time (CST) Temp. Windchill Dew Point Humidity Pressure Visibility Wind Dir Wind Speed Gust Speed Precip Events Conditions
12:15 AM 31.6 °F - 24.3 °F 74% 30.03 in 10.0 mi Calm Calm - N/A   Clear
12:35 AM 31.6 °F - 24.1 °F 74% 30.03 in 10.0 mi Calm Calm - N/A   Clear
12:55 AM 31.8 °F - 24.6 °F 75% 30.03 in 10.0 mi Calm Calm - N/A   Clear
1:15 AM 30.9 °F - 23.9 °F 75% 30.03 in 10.0 mi Calm Calm - N/A   Clear
1:35 AM 29.3 °F - 23.9 °F 80% 30.04 in 7.0 mi Calm Calm - N/A   Clear
1:55 AM 30.6 °F - 25.0 °F 80% 30.03 in 10.0 mi Calm Calm - N/A   Clear
2:15 AM 30.6 °F - 24.6 °F 79% 30.02 in 10.0 mi Calm Calm - N/A   Clear
2:35 AM 29.3 °F - 24.1 °F 81% 30.01 in 10.0 mi Calm Calm - N/A   Clear
2:55 AM 28.9 °F - 25.0 °F 85% 30.00 in 7.0 mi Calm Calm - N/A   Clear
3:15 AM 27.3 °F - 23.0 °F 84% 30.02 in 10.0 mi Calm Calm - N/A   Clear
3:35 AM 27.5 °F - 23.9 °F 86% 30.03 in 10.0 mi Calm Calm - N/A   Clear
3:55 AM 28.0 °F - 24.1 °F 85% 30.02 in 10.0 mi Calm Calm - N/A   Clear
4:15 AM 28.4 °F - 24.1 °F 84% 30.00 in 10.0 mi Calm Calm - N/A   Clear
4:35 AM 27.0 °F - 22.5 °F 83% 30.01 in 10.0 mi Calm Calm - N/A   Clear
4:55 AM 24.8 °F - 22.1 °F 89% 30.01 in 10.0 mi Calm Calm - N/A   Clear
5:15 AM 26.1 °F - 23.9 °F 92% 30.01 in 10.0 mi Calm Calm - N/A   Clear
5:35 AM 24.8 °F - 23.2 °F 94% 30.02 in 7.0 mi Calm Calm - N/A   Clear
5:55 AM 26.2 °F - 24.4 °F 93% 30.01 in 10.0 mi Calm Calm - N/A   Clear
6:15 AM 26.1 °F - 24.1 °F 92% 30.02 in 10.0 mi Calm Calm - N/A   Clear
6:35 AM 25.2 °F - 23.7 °F 94% 30.02 in 7.0 mi Calm Calm - N/A   Clear
6:55 AM 24.8 °F - 23.5 °F 95% 30.03 in 7.0 mi Calm Calm - N/A   Clear
7:15 AM 25.7 °F - 24.1 °F 94% 30.03 in 7.0 mi Calm Calm - N/A   Clear
7:35 AM 26.6 °F - 25.0 °F 94% 30.02 in 7.0 mi Calm Calm - N/A   Clear
7:55 AM 29.3 °F - 27.9 °F 94% 30.03 in 7.0 mi Calm Calm - N/A   Clear
8:15 AM 32.0 °F - 28.4 °F 87% 30.03 in 7.0 mi Calm Calm - N/A   Clear
8:35 AM 33.4 °F - 28.8 °F 83% 30.02 in 7.0 mi Calm Calm - N/A   Clear
8:55 AM 35.1 °F 32.2 °F 29.7 °F 81% 30.04 in 7.0 mi SSW 3.5 mph - N/A   Clear
9:15 AM 37.6 °F - 30.4 °F 75% 30.04 in 7.0 mi Calm Calm - N/A   Clear
9:35 AM 40.5 °F - 30.9 °F 69% 30.05 in 7.0 mi Calm Calm - N/A   Clear
9:55 AM 45.0 °F 42.6 °F 32.2 °F 61% 30.06 in 10.0 mi SW 4.6 mph - N/A   Clear
10:15 AM 46.6 °F - 32.4 °F 58% 30.06 in 10.0 mi Calm Calm - N/A   Clear
10:35 AM 48.6 °F - 32.4 °F 54% 30.06 in 7.0 mi WSW 3.5 mph - N/A   Clear
10:55 AM 50.9 °F - 32.4 °F 49% 30.05 in 7.0 mi Calm Calm - N/A   Clear
11:15 AM 52.7 °F - 32.0 °F 45% 30.04 in 5.0 mi Calm Calm - N/A   Clear
11:35 AM 54.1 °F - 32.2 °F 43% 30.03 in 7.0 mi SW 4.6 mph - N/A   Clear
11:55 AM 54.0 °F - 31.8 °F 43% 30.02 in 7.0 mi SW 6.9 mph - N/A   Clear
12:15 PM 55.2 °F - 32.4 °F 42% 30.01 in 10.0 mi West 4.6 mph - N/A   Clear
12:35 PM 55.6 °F - 32.7 °F 42% 30.00 in 7.0 mi SW 3.5 mph - N/A   Clear
12:55 PM 56.8 °F - 32.4 °F 40% 29.98 in 10.0 mi West 3.5 mph - N/A   Clear
1:35 PM 59.4 °F - 32.0 °F 36% 29.95 in 10.0 mi WSW 8.1 mph - N/A   Clear
1:55 PM 59.5 °F - 32.0 °F 35% 29.95 in 10.0 mi West 4.6 mph - N/A   Clear
2:15 PM 61.0 °F - 32.0 °F 34% 29.93 in 10.0 mi SSW 9.2 mph - N/A   Clear
2:35 PM 60.4 °F - 31.8 °F 34% 29.92 in 7.0 mi SSW 8.1 mph - N/A   Clear
2:55 PM 60.6 °F - 32.0 °F 34% 29.91 in 10.0 mi SW 5.8 mph - N/A   Clear
3:15 PM 61.0 °F - 32.2 °F 34% 29.91 in 10.0 mi South 8.1 mph - N/A   Clear
3:35 PM 61.9 °F - 32.0 °F 33% 29.90 in 10.0 mi WSW 4.6 mph - N/A   Clear
3:55 PM 61.7 °F - 32.0 °F 33% 29.90 in 7.0 mi Calm Calm - N/A   Clear
4:15 PM 61.7 °F - 32.0 °F 33% 29.90 in 10.0 mi Calm Calm - N/A   Clear
4:35 PM 60.8 °F - 32.0 °F 34% 29.90 in 10.0 mi Calm Calm - N/A   Clear
4:55 PM 61.3 °F - 32.2 °F 33% 29.90 in 7.0 mi Calm Calm - N/A   Clear
5:15 PM 60.4 °F - 32.2 °F 35% 29.90 in 10.0 mi South 3.5 mph - N/A   Clear
5:35 PM 58.8 °F - 32.5 °F 37% 29.90 in 10.0 mi South 3.5 mph - N/A   Clear
5:55 PM 57.6 °F - 33.8 °F 41% 29.90 in 5.0 mi Calm Calm - N/A   Clear
6:15 PM 56.3 °F - 33.4 °F 42% 29.89 in 10.0 mi Calm Calm - N/A   Clear
6:35 PM 54.1 °F - 33.8 °F 46% 29.89 in 10.0 mi Calm Calm - N/A   Clear
6:55 PM 53.1 °F - 34.0 °F 48% 29.91 in 10.0 mi Calm Calm - N/A   Clear
7:15 PM 51.8 °F - 34.2 °F 51% 29.91 in 10.0 mi Calm Calm - N/A   Clear
7:35 PM 48.2 °F - 34.0 °F 58% 29.92 in 10.0 mi Calm Calm - N/A   Clear
7:55 PM 48.4 °F - 34.5 °F 59% 29.92 in 10.0 mi Calm Calm - N/A   Clear
8:15 PM 47.3 °F - 34.7 °F 62% 29.91 in 10.0 mi Calm Calm - N/A   Clear
8:35 PM 48.6 °F - 34.5 °F 58% 29.91 in 10.0 mi Calm Calm - N/A   Clear
8:55 PM 46.6 °F - 34.3 °F 62% 29.90 in 10.0 mi Calm Calm - N/A   Clear
9:15 PM 45.3 °F - 34.2 °F 65% 29.90 in 10.0 mi Calm Calm - N/A   Clear
9:35 PM 43.0 °F - 33.8 °F 70% 29.91 in 10.0 mi Calm Calm - N/A   Clear
9:55 PM 43.0 °F - 33.8 °F 70% 29.91 in 10.0 mi Calm Calm - N/A   Clear
10:15 PM 43.7 °F - 33.8 °F 68% 29.91 in 10.0 mi Calm Calm - N/A   Clear
10:35 PM 41.4 °F - 33.1 °F 72% 29.91 in 10.0 mi Calm Calm - N/A   Clear
10:55 PM 42.1 °F - 34.0 °F 73% 29.91 in 10.0 mi Calm Calm - N/A   Clear
11:15 PM 43.0 °F - 34.3 °F 72% 29.90 in 10.0 mi Calm Calm - N/A   Clear
11:35 PM 44.1 °F - 34.5 °F 69% 29.88 in 10.0 mi Calm Calm - N/A   Clear
11:55 PM 44.8 °F - 34.7 °F 68% 29.88 in 10.0 mi Calm Calm - N/A   Clear